Regional Weather Roundup
Issued by NWS Charleston, SC

Current Version | Previous Version | Graphics & Text | Print | Product List | Glossary On
Versions: 1 2 3 4 5 6 7 8 9 10 11 12 13 14 15 16 17 18 19 20 21 22 23 24 25 26 27 28 29 30 31 32 33 34 35 36 37 38 39 40 41 42 43 44 45 46 47 48 49 50
000 ASUS42 KCHS 272312 RWRCHS REGIONAL WEATHER ROUNDUP NATIONAL WEATHER SERVICE CHARLESTON SC 700 PM EDT TUE JUN 27 2017 NOTE: "FAIR" INDICATES FEW OR NO CLOUDS BELOW 12,000 FEET WITH NO SIGNIFICANT WEATHER AND/OR OBSTRUCTIONS TO VISIBILITY. NOT ALL STATIONS ARE QUALITY CONTROLLED. USE DATA WITH CAUTION... ESPECIALLY DEWPOINT OBSERVATIONS. SCZ027-030-031-034>040-042>050-280000- ...SOUTHEAST SOUTH CAROLINA... CITY SKY/WX TMP DP RH WIND PRES REMARKS N CHARLESTON CLOUDY 81 62 52 S10 30.01R WATERFRONT PRK N/A 81 67 62 SE8 29.99F JOHNS ISLAND FAIR 81 66 61 E6 30.01S PINOPOLIS N/A 82 68 61 NE5 29.94S MONCKS CORNER FAIR 81 63 54 SE3 30.01R SUMMERVILLE MOCLDY 81 66 61 CALM 30.02R BEAUFORT MCAS CLOUDY 81 70 69 CALM 30.00F BEAUFORT ARPT FAIR 81 68 65 SE5 30.00S HILTON HEAD IS PTSUNNY 81 68 65 E3 30.01F WALTERBORO CLOUDY 81 64 57 SE8 30.01S ALLENDALE FAIR 82 68 61 VRB3 29.99S ...SOUTHERN MIDLANDS AND PEE DEE... CITY SKY/WX TMP DP RH WIND PRES REMARKS GEORGETOWN FAIR 81 64 57 CALM 30.02S KINGSTREE FAIR 79 64 61 CALM 30.01S ORANGEBURG CLOUDY 80 66 62 SE5 30.01S BARNWELL FAIR 84 68 58 CALM 30.01R AIKEN FAIR 81 59 47 NE7 30.05S MANNING FAIR 79 72 78 SE3 30.01S COLUMBIA PTSUNNY 87 58 37 N6 30.00S SUMTER NOT AVBL FLORENCE CLOUDY 85 60 42 N5 30.01S MYRTLE BEACH PTSUNNY 81 64 57 S12 30.01F N MYRTLE BEACH CLOUDY 81 64 56 S8 30.00S $$ GAZ063-065-086>088-099>101-113>116-118-119-134>141-150-280000- ...SOUTHEAST GEORGIA... CITY SKY/WX TMP DP RH WIND PRES REMARKS SAVANNAH ARPT PTSUNNY 80 66 62 SE6 30.01S HUNTER AAF NOT AVBL FORT STEWART NOT AVBL STATESBORO CLOUDY 84 68 57 SE6 30.00S SYLVANIA MOCLDY 85 71 63 SE3 30.01S CLAXTON FAIR 79 70 73 E5 30.01R ...CSRA...CENTRAL AND FAR SOUTHEAST GEORGIA... CITY SKY/WX TMP DP RH WIND PRES REMARKS THOMSON MOSUNNY 83 58 42 SE5 30.07R AUGUSTA-BUSH CLOUDY 87 62 43 NE7 29.99S AUGUSTA-DANIEL CLOUDY 88 51 28 NE7 30.01S SWAINSBORO FAIR 82 66 57 CALM 30.01F VIDALIA CLOUDY 84 66 54 NE7 30.01R EASTMAN FAIR 82 55 38 NE3 30.03S HAZLEHURST FAIR 83 68 60 CALM 30.00R ALMA PTSUNNY 79 70 74 SE6 30.02R WAYCROSS LGT RAIN 76 76 100 E6 30.03R JESUP FAIR 75 66 73 E3 30.03R BAXLEY FAIR 81 77 89 SE8 30.01R BRUNSWICK LGT RAIN 73 72 94 N3 30.02R SAINT SIMONS CLOUDY 78 72 81 E9 30.01R $$ SCZ027-028-034-036>038-045-046-048>050-GAZ119-141-280000- ...LAKE AND SUPPLEMENTAL COASTAL OBSERVATIONS... STATION/POSITION TIME TEMP WIND PRES WAVE SWELL AIR SEA DIR/SP/G HT/PER HT/PER/DIR (UTC) (F) (DEG/KT/KT) (MB) (FT/S) (FT/S/D) WINYAH BAY 2145 81 140/ 7 1016.0 LAKE MURRAY 2220 83 80/ 3/ 5 1014.9 ACE BASIN NERRS 2145 83 120/ 2 1016.0 FORT PULASKI 2248 80 84 130/ 5/ 7 1016.2F SAPELO ISLAND 2200 71 80/ 8 1016.0 $$ ANZ835-935-AMZ111-154-330-350-352-354-370-450-454-472-280000- ...C-MAN AND BUOY OBSERVATIONS... STATION/POSITION TIME TEMP WIND PRES WAVE SWELL AIR SEA DIR/SP/G HT/PER HT/PER/DIR (UTC) (F) (DEG/KT/KT) (MB) (FT/S) (FT/S/D) BUOY 41004 2250 80 81 80/ 8/ 10 1015.6F 2/ 6 2/140/ 6 BUOY 41008 2250 79 82 70/ 10/ 12 1015.7S 2/ 4 2/130/ 8 FOLLY BEACH CMAN 2200 81 120/ 11/ 13 1017.0F CAPERS NEARSHORE 2208 86 84 140/ 10/ 14 1016.1F FRIPP NEARSHORE 2208 81 83 120/ 10/ 14 1015.6F STATION/POSITION TIME TEMP WIND PRES WAVE SWELL AIR SEA DIR/SP/G HT/PER HT/PER/DIR (UTC) (F) (DEG/KT/KT) (MB) (FT/S) (FT/S/D) 5E ST. MARYS GA 2230 81 N/A 2/ 8 FRYING PAN BUOY 2250 80 81 80/ 4/ 4 1015.8F 1/ 7 2/120/ 7 BUOY 41025 2250 80 83 240/ 4/ 4 1015.7F 2/ 7 2/120/ 7 CAPE LOOKOUT NC 2200 80 190/ 5/ 6 1015.6F BUOY 41002 2150 77 80 240/ 8/ 12 1016.3 3/ 6 3/200/ 6 BUOY 41010 2250 79 84 20/ 6/ 8 1015.0F 3/ 4 2/130/ 8 ST AUGUSTINE FL 2300 76 80 60/ 11/ 13 1016.0F $$

USA.gov is the U.S. government's official web portal to all federal, state and local government web resources and services.